• In Deutschland
  • Länderverzeichnis
  • Für 7 Tage
  • Wassertemperatur
  • Satellitenkarten
  • Wetterkarte
  • Widgets
  • user-avatar
    Anmelden

    Stündliche Wetter Landshut

    Heute, 20 August, Montag

    Zeit Temperatur Niederschläge Wind Luftdruck Luftfeuchtigkeit
    00:00 +21°C° 0 mm 1 m/S 725 mmHg 75%
    01:00 +20°C° 0 mm 2 m/S 724 mmHg 74%
    02:00 +21°C° 0 mm 1 m/S 724 mmHg 76%
    03:00 +20°C° 0 mm 1 m/S 724 mmHg 77%
    04:00 +20°C° 0 mm 1 m/S 724 mmHg 78%
    05:00 +20°C° 0 mm 1 m/S 724 mmHg 77%
    06:00 +21°C° 0 mm 1 m/S 724 mmHg 77%
    07:00 +21°C° 0 mm 2 m/S 725 mmHg 72%
    08:00 +23°C° 0 mm 2 m/S 725 mmHg 66%
    09:00 +25°C° 0 mm 2 m/S 725 mmHg 60%
    10:00 +27°C° 0 mm 2 m/S 725 mmHg 54%
    11:00 +27°C° 0 mm 2 m/S 725 mmHg 52%
    12:00 +28°C° 0 mm 2 m/S 725 mmHg 49%
    13:00 +30°C° 0 mm 2 m/S 725 mmHg 46%
    14:00 +30°C° 0 mm 2 m/S 724 mmHg 47%
    15:00 +30°C° 0 mm 2 m/S 724 mmHg 47%
    16:00 +30°C° 0 mm 2 m/S 724 mmHg 48%
    17:00 +28°C° 0,1 mm 2 m/S 724 mmHg 55%
    18:00 +26°C° 0,1 mm 2 m/S 724 mmHg 63%
    19:00 +24°C° 0,1 mm 1 m/S 724 mmHg 70%
    20:00 +23°C° 0,1 mm 1 m/S 724 mmHg 74%
    21:00 +22°C° 0,1 mm 1 m/S 724 mmHg 78%
    22:00 +20°C° 0,1 mm 2 m/S 725 mmHg 82%
    23:00 +20°C° 0 mm 1 m/S 725 mmHg 85%

    Morgen, 21 August, Dienstag

    Zeit Temperatur Niederschläge Wind Luftdruck Luftfeuchtigkeit
    00:00 +20°C° 0 mm 1 m/S 725 mmHg 87%
    01:00 +19°C° 0 mm 1 m/S 725 mmHg 90%
    02:00 +19°C° 0 mm 1 m/S 725 mmHg 91%
    03:00 +19°C° 0 mm 1 m/S 725 mmHg 92%
    04:00 +18°C° 0 mm 1 m/S 725 mmHg 93%
    05:00 +19°C° 0 mm 1 m/S 725 mmHg 91%
    06:00 +20°C° 0 mm 1 m/S 725 mmHg 89%
    07:00 +18°C° 0 mm 0 m/S 725 mmHg 86%
    08:00 +22°C° 0 mm 1 m/S 725 mmHg 80%
    09:00 +24°C° 0 mm 1 m/S 725 mmHg 73%
    10:00 +26°C° 0 mm 1 m/S 725 mmHg 66%
    11:00 +27°C° 0 mm 1 m/S 725 mmHg 63%
    12:00 +27°C° 0 mm 1 m/S 725 mmHg 59%
    13:00 +28°C° 0 mm 2 m/S 725 mmHg 55%
    14:00 +28°C° 0 mm 2 m/S 725 mmHg 55%
    15:00 +28°C° 0 mm 2 m/S 724 mmHg 55%
    16:00 +28°C° 0 mm 2 m/S 724 mmHg 55%
    17:00 +27°C° 0 mm 2 m/S 724 mmHg 61%
    18:00 +25°C° 0 mm 2 m/S 724 mmHg 68%
    19:00 +23°C° 0 mm 2 m/S 724 mmHg 75%
    20:00 +21°C° 0 mm 2 m/S 724 mmHg 78%
    21:00 +20°C° 0 mm 2 m/S 724 mmHg 82%
    22:00 +19°C° 0 mm 2 m/S 724 mmHg 86%
    23:00 +19°C° 0 mm 2 m/S 724 mmHg 87%

    übermorgen, 22 August, Mittwoch

    Zeit Temperatur Niederschläge Wind Luftdruck Luftfeuchtigkeit
    00:00 +19°C° 0 mm 1 m/S 724 mmHg 89%
    01:00 +19°C° 0 mm 1 m/S 724 mmHg 91%
    02:00 +19°C° 0 mm 1 m/S 724 mmHg 91%
    03:00 +18°C° 0 mm 1 m/S 724 mmHg 92%
    04:00 +18°C° 0 mm 1 m/S 724 mmHg 92%
    05:00 +18°C° 0 mm 1 m/S 724 mmHg 90%
    06:00 +19°C° 0 mm 1 m/S 724 mmHg 87%
    07:00 +20°C° 0 mm 1 m/S 724 mmHg 85%
    08:00 +22°C° 0 mm 1 m/S 724 mmHg 78%
    09:00 +24°C° 0 mm 2 m/S 724 mmHg 71%
    10:00 +26°C° 0 mm 2 m/S 724 mmHg 65%
    11:00 +27°C° 0 mm 2 m/S 724 mmHg 61%
    12:00 +28°C° 0 mm 2 m/S 724 mmHg 57%
    13:00 +29°C° 0 mm 2 m/S 723 mmHg 54%
    14:00 +29°C° 0 mm 2 m/S 723 mmHg 53%
    15:00 +29°C° 0 mm 1 m/S 723 mmHg 53%
    16:00 +29°C° 0 mm 1 m/S 723 mmHg 53%
    17:00 +28°C° 0 mm 1 m/S 723 mmHg 58%
    18:00 +26°C° 0 mm 1 m/S 723 mmHg 64%
    19:00 +22°C° 0 mm 0 m/S 723 mmHg 70%
    20:00 +23°C° 0 mm 1 m/S 723 mmHg 73%
    21:00 +23°C° 0 mm 1 m/S 723 mmHg 75%
    22:00 +22°C° 0 mm 1 m/S 723 mmHg 78%
    23:00 +21°C° 0 mm 1 m/S 723 mmHg 80%

    23 August, Donnerstag

    Zeit Temperatur Niederschläge Wind Luftdruck Luftfeuchtigkeit
    00:00 +21°C° 0 mm 1 m/S 723 mmHg 81%
    01:00 +21°C° 0 mm 1 m/S 723 mmHg 83%
    02:00 +20°C° 0,3 mm 1 m/S 723 mmHg 85%
    03:00 +20°C° 0,3 mm 1 m/S 723 mmHg 86%
    04:00 +20°C° 0,3 mm 1 m/S 722 mmHg 87%
    05:00 +20°C° 0,4 mm 1 m/S 722 mmHg 87%
    06:00 +20°C° 0,4 mm 1 m/S 722 mmHg 87%
    07:00 +21°C° 0,4 mm 1 m/S 722 mmHg 87%
    08:00 +22°C° 0,3 mm 1 m/S 722 mmHg 82%
    09:00 +24°C° 0,3 mm 2 m/S 722 mmHg 77%
    10:00 +25°C° 0,3 mm 2 m/S 722 mmHg 72%
    11:00 +26°C° 0,9 mm 2 m/S 722 mmHg 68%
    12:00 +27°C° 0,9 mm 2 m/S 722 mmHg 65%
    13:00 +28°C° 0,9 mm 2 m/S 722 mmHg 61%
    14:00 +28°C° 0,6 mm 2 m/S 722 mmHg 62%
    15:00 +28°C° 0,6 mm 2 m/S 721 mmHg 62%
    16:00 +28°C° 0,6 mm 2 m/S 721 mmHg 62%
    17:00 +26°C° 0,4 mm 1 m/S 721 mmHg 67%
    18:00 +25°C° 0,4 mm 1 m/S 721 mmHg 72%
    19:00 +23°C° 0,4 mm 1 m/S 721 mmHg 76%
    20:00 +21°C° 0,2 mm 2 m/S 721 mmHg 79%
    21:00 +21°C° 0,2 mm 2 m/S 721 mmHg 82%
    22:00 +20°C° 0,2 mm 2 m/S 721 mmHg 84%
    23:00 +19°C° 0,1 mm 2 m/S 721 mmHg 86%

    24 August, Freitag

    Zeit Temperatur Niederschläge Wind Luftdruck Luftfeuchtigkeit
    00:00 +19°C° 0,1 mm 2 m/S 721 mmHg 88%
    01:00 +18°C° 0,1 mm 2 m/S 721 mmHg 89%
    02:00 +18°C° 0,4 mm 2 m/S 720 mmHg 90%
    03:00 +17°C° 0,4 mm 2 m/S 720 mmHg 91%
    04:00 +17°C° 0,4 mm 2 m/S 720 mmHg 92%
    05:00 +17°C° 0,7 mm 2 m/S 720 mmHg 92%
    06:00 +18°C° 0,7 mm 2 m/S 720 mmHg 92%
    07:00 +18°C° 0,7 mm 3 m/S 721 mmHg 91%
    08:00 +19°C° 0,4 mm 3 m/S 721 mmHg 87%
    09:00 +20°C° 0,4 mm 3 m/S 721 mmHg 83%
    10:00 +22°C° 0,4 mm 3 m/S 721 mmHg 78%
    11:00 +22°C° 0,7 mm 3 m/S 721 mmHg 77%
    12:00 +21°C° 0,7 mm 4 m/S 720 mmHg 76%
    13:00 +21°C° 0,7 mm 4 m/S 720 mmHg 75%
    14:00 +20°C° 0,4 mm 4 m/S 720 mmHg 73%
    15:00 +19°C° 0,4 mm 4 m/S 720 mmHg 71%
    16:00 +18°C° 0,4 mm 3 m/S 720 mmHg 70%
    17:00 +17°C° 0,3 mm 3 m/S 721 mmHg 73%
    18:00 +16°C° 0,3 mm 3 m/S 721 mmHg 76%
    19:00 +14°C° 0,3 mm 3 m/S 721 mmHg 79%
    20:00 +15°C° 0,1 mm 2 m/S 722 mmHg 80%
    21:00 +15°C° 0,1 mm 2 m/S 722 mmHg 80%
    22:00 +14°C° 0,1 mm 2 m/S 722 mmHg 81%
    23:00 +14°C° 0 mm 2 m/S 722 mmHg 81%

    25 August, Samstag

    Zeit Temperatur Niederschläge Wind Luftdruck Luftfeuchtigkeit
    00:00 +13°C° 0 mm 2 m/S 722 mmHg 80%
    01:00 +13°C° 0 mm 2 m/S 722 mmHg 80%
    02:00 +12°C° 0 mm 2 m/S 722 mmHg 80%
    03:00 +12°C° 0 mm 2 m/S 722 mmHg 80%
    04:00 +11°C° 0 mm 1 m/S 722 mmHg 81%
    05:00 +12°C° 0 mm 1 m/S 722 mmHg 80%
    06:00 +12°C° 0 mm 1 m/S 722 mmHg 79%
    07:00 +12°C° 0 mm 1 m/S 722 mmHg 78%
    08:00 +14°C° 0 mm 1 m/S 722 mmHg 70%
    09:00 +15°C° 0 mm 2 m/S 722 mmHg 63%
    10:00 +17°C° 0 mm 2 m/S 721 mmHg 55%
    11:00 +17°C° 0 mm 2 m/S 721 mmHg 54%
    12:00 +18°C° 0 mm 2 m/S 720 mmHg 53%
    13:00 +18°C° 0 mm 2 m/S 720 mmHg 52%
    14:00 +18°C° 0 mm 2 m/S 719 mmHg 52%
    15:00 +19°C° 0 mm 2 m/S 719 mmHg 53%
    16:00 +19°C° 0 mm 2 m/S 718 mmHg 53%
    17:00 +18°C° 0 mm 2 m/S 718 mmHg 60%
    18:00 +16°C° 0 mm 1 m/S 718 mmHg 66%
    19:00 +15°C° 0 mm 1 m/S 717 mmHg 72%
    20:00 +15°C° 0,1 mm 2 m/S 717 mmHg 75%
    21:00 +14°C° 0,1 mm 2 m/S 717 mmHg 77%
    22:00 +14°C° 0,1 mm 2 m/S 717 mmHg 79%
    23:00 +14°C° 0,7 mm 2 m/S 717 mmHg 84%
    Mehr zeigen